Location: Aranbee
(34.0885°N, 118.2342°W)
Time: 00:12:56
(UTC+00:00)

A-11 Canister half - Pass Details

Date: 01 August 2021
Orbit: 1515 x 1685 km, 47.2° (Epoch: 22 September)

Event Time Altitude Azimuth Distance (km) Brightness Sun altitude
Rises 03:06:58 0° 278° (W) 4,828 13.5 -3.2°
Reaches altitude 10° 03:10:23 10° 287° (WNW) 3,866 13.0 -3.9°
Maximum altitude 03:19:32 39° 354° (N) 2,316 10.3 -5.6°
Drops below altitude 10° 03:28:53 10° 61° (ENE) 3,948 10.8 -7.3°
Sets 03:32:25 0° 69° (ENE) 4,940 11.3 -8.0°
